Location: Bishopstone
(51.0167°N, 1.9000°W)
Time: 13:32:48
(UTC+00:00)

Cosmos 2219 - Pass Details

Date: 16 September 2019
Orbit: 834 x 859 km, 71.1° (Epoch: 21 October)

Event Time Altitude Azimuth Distance (km) Brightness Sun altitude
Rises 19:29:08 0° 172° (S) 3,421 6.1 -11.4°
Reaches altitude 10° 19:31:52 10° 162° (SSE) 2,490 5.3 -11.8°
Maximum altitude 19:36:41 29° 104° (ESE) 1,536 4.0 -12.5°
Drops below altitude 10° 19:41:32 10° 47° (NE) 2,503 5.4 -13.2°
Sets 19:44:17 0° 36° (NE) 3,442 6.2 -13.7°
